Regional Weather Roundup
Issued by NWS Upton, NY

Current Version | Previous Version | Text Only | Print | Product List | Glossary On
Versions: 1 2 3 4 5 6 7 8 9 10 11 12 13 14 15 16 17 18 19 20 21 22 23 24 25 26 27 28 29 30 31 32 33 34 35 36 37 38 39 40 41 42 43 44 45 46 47 48 49 50
650
ASUS41 KOKX 221909
RWROKX

REGIONAL WEATHER ROUNDUP
NATIONAL WEATHER SERVICE NEW YORK NY
300 PM EDT MON MAY 22 2017

NOTE: "FAIR" INDICATES FEW OR NO CLOUDS BELOW 12,000 FEET WITH NO
SIGNIFICANT WEATHER AND/OR OBSTRUCTIONS TO VISIBILITY.

NYZ071-072-176-178-NJZ106-104-222000-
NEW YORK CITY METRO AREA

CITY           SKY/WX    TMP DP  RH WIND       PRES   REMARKS
Central Park   LGT RAIN  59  58  96 VRB6      30.04F FOG
Wall St Helipt LGT RAIN  59  58  96 VRB6      30.03F FOG
Bronx Bot Gard   N/A     57  55  94 S1        30.04S
LaGuardia APRT RAIN      61  58  90 S9        30.02F FOG
Kennedy INTL   RAIN      59  59 100 SE12      30.04F FOG
Breezy Point     N/A     55 N/A N/A SE13        N/A
Newark/Liberty HVY RAIN  58  58 100 E3        30.02F FOG
Teterboro      LGT RAIN  60  58  92 SE3       30.01F FOG
$$

NYZ177-179-078>081-222000-
LONG ISLAND NEW YORK

CITY           SKY/WX    TMP DP  RH WIND       PRES   REMARKS
Jones Beach      N/A     57 N/A N/A SE10G16     N/A
Matinecock PT    N/A     57 N/A N/A SE5         N/A
Farmingdale    LGT RAIN  58  58 100 SE13      30.04F
MacArthur/ISP  LGT RAIN  58  58 100 SE13      30.05F FOG
Shirley        RAIN      56  56 100 SE8       30.07F FOG
Mt Sinai Harb    N/A     57 N/A N/A SE5         N/A
Westhampton    LGT RAIN  55  53  93 SE8       30.09F FOG
East Hampton   RAIN      52  51  96 E8        30.08F
Montauk          N/A     53  52  96 VRB7      30.10F
$$

NYZ052-065-067-222000-
HUDSON VALLEY

CITY           SKY/WX    TMP DP  RH WIND       PRES   REMARKS
White Plains   LGT RAIN  56  54  93 E8        30.03F FOG
Larchmont Harb   N/A     55 N/A N/A NE10        N/A
Croton O-T Hud   N/A     57 N/A N/A MISG        N/A
Newburgh       CLOUDY    57  55  94 VRB6      30.05S
Montgomery     LGT RAIN  59  54  83 S3        30.02F
Poughkeepsie   CLOUDY    58  53  84 SE5       30.02F
Albany         CLOUDY    59  49  69 S17G24    29.99F
$$

NJZ001-105-106-008-010-013-015-019>022-104-222000-
NEW JERSEY

CITY           SKY/WX    TMP DP  RH WIND       PRES   REMARKS
Newark/Liberty HVY RAIN  58  58 100 E3        30.02F FOG
Teterboro      LGT RAIN  60  58  92 SE3       30.01F FOG
Caldwell       RAIN      60  56  86 E3        30.03F FOG
Somerville     RAIN      59  58  96 CALM      29.99F FOG
Linden         LGT RAIN  59  58  94 CALM      30.02F
Perth Amboy      N/A     59 N/A N/A W1          N/A
Sussex         LGT RAIN  58  57  97 CALM      30.02F
Andover          N/A     57  56  96 VRB3      30.02F
Trenton        LGT RAIN  60  59  96 E5        30.00F
Millville      LGT RAIN  63  63 100 N6        29.99F FOG
Atlantic City  RAIN      64  61  90 SE6       30.00F FOG
Wrightstown    LGT RAIN  63  61  94 SE5       29.99F
Toms River     RAIN      62  61  96 SE3       30.02F FOG
Belmar         LGT RAIN  60  59  96 SE6       30.03F
$$

PAZ047>061-062-071-222000-
EASTERN PENNSYLVANIA

CITY           SKY/WX    TMP DP  RH WIND       PRES   REMARKS
Philadelphia   CLOUDY    64  60  87 E5        30.01F
Allentown      CLOUDY    60  55  83 NE6       30.00F
Scranton       CLOUDY    62  55  77 SW8       29.99F
$$

CTZ002-004>006-009-010-012-RIZ004-006-007-MAZ004-011-015-222000-
SOUTHERN NEW ENGLAND
 IN CT

CITY           SKY/WX    TMP DP  RH WIND       PRES   REMARKS
Bradley INTL   CLOUDY    56  47  71 S12       30.07F
Hartford       CLOUDY    54  52  93 S8        30.07F FOG
Danbury        LGT RAIN  54  54 100 SE8       30.06F FOG
Wtrbury/Oxford LGT RAIN  54  48  82 SE9       30.08F FOG
Bridgeport     LGT RAIN  57  54  89 E14       30.06F FOG
Meriden        LGT RAIN  53  52  96 VRB3      30.07F
New Haven      CLOUDY    53  52  96 E10       30.06F FOG
Chester        LGT RAIN  52  52 100 SE8       30.08F VSB 1
Groton         LGT RAIN  52  50  93 E8        30.10F FOG
Wilimantic     CLOUDY    54  48  80 S7        30.11F

 IN RI

CITY           SKY/WX    TMP DP  RH WIND       PRES   REMARKS
Providence     CLOUDY    56  49  77 S10       30.12F
Block Island   LGT RAIN  52  51  97 SE12      30.11F FOG
Westerly       RAIN      52  51  97 E7        30.12S FOG
 IN MA

CITY           SKY/WX    TMP DP  RH WIND       PRES   REMARKS
Boston         CLOUDY    52  48  86 SE8       30.12F
Worcester      NOT AVBL
Westfield      CLOUDY    57  48  72 S12       30.06F
Provincetown   CLOUDY    55  44  66 SE12      30.14F
Nantucket      CLOUDY    54  46  74 SE14      30.14F
$$

ANZ330-335-338-340-345-350-353-355-222000-
COASTAL MARINE OBSERVATIONS


STATION/POSITION TIME  SKY/WX   TEMP    WIND        PRES    VSBY  WAVE
                                AIR SEA DIR/SP/G                  HT/PER
                 (UTC)          (F)     (DEG/KT/KT) (MB)    (MI)  (FT/S)
NY HARB ENTRANCE 1750            57 56  150/ 12/ 14 1017.7          3/ 4
20 S FIRE ISLAND 1850            56 54  140/ 12/ 14 1016.7          3/ 4
GREAT SOUTH BAY  1830            57 65  140/ 12/ 16   N/A
23 SSW MONTAUK P 1750            54 54              1019.4          3/ 4
15 E BARNEGAT LI 1830               56                N/A           3/ 6
HUDSON CANYON    1750            57 54  140/ 12/ 12 1017.8          3/ 5
KINGS POINT      1848            59 57  190/  7/  9 1016.6
EXECUTION ROCKS  1845            58                   N/A
CENTRAL LI SOUND 1800            54     100/ 10/ 14   N/A           1/ 3
EASTERN LI SOUND NOT AVBL
ROBBINS REEF     1848            58     150/ 10/ 12 1017.0
$$


>>>>>>>>>>>>>>>>>>>>>>>>>>>> KEY <<<<<<<<<<<<<<<<<<<<<<<<<<<
>                                                          <
>     SKY/WX - Sky Condition/Present Weather               <
>     TMP    - Temperature in Fahrenheit                   <
>     DP     - Dew Point in Fahrenheit                     <
>     RH     - Relative Humidity in Percent                <
>     WIND   - Direction (from) and Speed in MPH           <
>     PRES   - Mean Sea Level Pressure (inches of Hg)      <
>     WCI    - Wind Chill Index                            <
>     VSB    - VISIBILITY IN MILES                         <
>     HX     - HEAT INDEX                                  <
>     TC     - TEMPERATURE IN CELSIUS                      <
>     VRB    - VARIABLE WIND DIRECTION                     <
>                                                          <
>>>>>>>>>>>>>>>>>>>>>>>>>>>> KEY <<<<<<<<<<<<<<<<<<<<<<<<<<<




USA.gov is the U.S. government's official web portal to all federal, state and local government web resources and services.